Content
SEND FEEDBACK

Daily
Averages
Monthly
Summary
Greece

KALAMATA, GREECE


Home > Europe > Greece
Elevation: 26 feet     Latitude: 37 04N     Longitude: 022 01E

WEATHER
 
SELECT A DAY
Number of Records: 251,385;   Date Range: 7/1/96 - 10/20/14
 
SHARE

PRINT THIS DATA

[ ← Previous Day ]
WEATHER ALMANAC - JUNE 26, 2013
[ Next Day → ]
[ °C ]   °F
We're sorry. There is no daily almanac available for Kalamata, Greece on June 26, 2013.
WEATHER BY HOUR - JUNE 26, 2013
[ °C ]   °F
Local TimeTemperatureDewpointHumidityBarometerVisibilityWind DirectionWind SpeedGust SpeedPrecipitationEventsConditions
1:50 AM69.8 °F57.2 °F64 %29.86 inNNE (20°)10.4 mphClear
2:50 AM68.0 °F57.2 °F68 %29.86 inNNE (20°)12.7 mphClear
3:50 AM69.8 °F59.0 °F68 %29.83 inNNE (20°)11.5 mph23.0 mphClear
4:50 AM68.0 °F57.2 °F68 %29.83 inNNE (20°)11.5 mphClear
5:50 AM68.0 °F57.2 °F68 %29.83 inNorth (10°)9.2 mphClear
6:20 AM66.2 °F57.2 °F73 %29.83 inNorth (10°)8.1 mphClear
6:50 AM68.0 °F57.2 °F68 %29.83 inNNE (20°)13.8 mph25.3 mphClear
7:20 AM69.8 °F57.2 °F64 %29.83 inNNE (20°)16.1 mph29.9 mphClear
7:50 AM71.6 °F59.0 °F64 %29.83 inNNE (20°)15.0 mph26.5 mphClear
8:20 AM73.4 °F59.0 °F61 %29.83 inNNE (20°)17.3 mph29.9 mphClear
8:50 AM75.2 °F57.2 °F53 %29.83 inNNE (20°)16.1 mph32.2 mphClear
9:20 AM75.2 °F59.0 °F57 %29.83 inNNE (20°)17.3 mph29.9 mphClear
9:50 AM77.0 °F59.0 °F54 %29.83 inNNE (20°)16.1 mph28.8 mphClear
10:20 AM78.8 °F57.2 °F47 %29.83 inNNE (20°)13.8 mph25.3 mphClear
10:50 AM80.6 °F57.2 °F45 %29.83 inNNE (20°)15.0 mph26.5 mphClear
11:20 AM82.4 °F59.0 °F45 %29.83 inNNE (20°)12.7 mphClear
11:50 AM84.2 °F57.2 °F40 %29.83 inNorth (10°)11.5 mph23.0 mphClear
12:20 PM86.0 °F57.2 °F37 %29.83 inNorth (10°)9.2 mphClear
12:50 PM87.8 °F57.2 °F35 %29.83 inNNE (20°)8.1 mphClear
1:20 PM87.8 °F60.8 °F40 %29.83 inNNE (20°)4.6 mphClear
1:50 PM87.8 °F59.0 °F38 %29.83 inWSW (250°)5.8 mphClear
2:20 PM89.6 °F59.0 °F36 %29.83 inSSW (200°)8.1 mphClear
2:50 PM87.8 °F59.0 °F38 %29.83 inSW (220°)5.8 mphClear
3:20 PM87.8 °F59.0 °F38 %29.83 inNorth (10°)10.4 mphClear
3:50 PM89.6 °F59.0 °F36 %29.83 inNorth (10°)12.7 mph25.3 mphClear
4:20 PM87.8 °F57.2 °F35 %29.83 inNorth (10°)16.1 mph28.8 mphClear
4:50 PM87.8 °F57.2 °F35 %29.83 inNNE (20°)15.0 mph28.8 mphClear
5:20 PM87.8 °F55.4 °F33 %29.83 inNNE (20°)16.1 mph34.5 mphClear
5:50 PM86.0 °F55.4 °F35 %29.83 inNNE (20°)19.6 mph32.2 mphClear
6:20 PM86.0 °F55.4 °F35 %29.83 inNNE (20°)17.3 mph29.9 mphClear
6:50 PM84.2 °F55.4 °F37 %29.83 inNNE (20°)18.4 mph29.9 mphClear
7:20 PM82.4 °F57.2 °F42 %29.83 inNNE (20°)18.4 mph29.9 mphClear
7:50 PM80.6 °F57.2 °F45 %29.83 inNNE (20°)17.3 mph29.9 mphClear
8:20 PM78.8 °F59.0 °F51 %29.86 inNNE (20°)17.3 mph28.8 mphClear
8:50 PM77.0 °F60.8 °F57 %29.86 inNNE (20°)15.0 mph26.5 mphClear
9:50 PM75.2 °F60.8 °F61 %29.86 in6.2 miNNE (20°)17.3 mph29.9 mphPartly Cloudy
10:20 PM75.2 °F60.8 °F61 %29.89 in6.2 miNNW (330°)13.8 mph25.3 mphPartly Cloudy
10:50 PM75.2 °F60.8 °F61 %29.89 in6.2 miNorth (350°)13.8 mph25.3 mphPartly Cloudy
11:50 PM73.4 °F60.8 °F65 %29.89 inNorth (350°)13.8 mph25.3 mphClear
Hourly data recorded from LGKL, located miles away from Kalamata, Greece







STORIES FROM OUR PARTNERS